Ainsworth, NE

10:11 PM CDT on April 23, 2018 (GMT -0500)
Ainsworth Municipal

Weather History for KANW - January, 2013

Change the Weather History Date:

Wednesday, January 9, 2013

  Actual Average Record
Temperature  
Mean Temperature 38 °F -  
Max Temperature 53 °F 33 °F 59 °F (2018)
Min Temperature 22 °F 12 °F -4 °F (1999)
Degree Days  
Heating Degree Days 28    
Moisture  
Dew Point 24 °F    
Average Humidity 64    
Maximum Humidity 85    
Minimum Humidity 33    
Precipitation  
Precipitation 0.00 in - - ()
Sea Level Pressure  
Sea Level Pressure 30.17 in    
Wind  
Wind Speed 11 mph (SSW)    
Max Wind Speed 28 mph    
Max Gust Speed 34 mph    
Visibility 10 miles    
Events      
Averages and records for this station are not official NWS values.
T = Trace of Precipitation, MM = Missing Value Source: NWS Daily Summary

Daily Weather History Graph

Daily Weather History Graph

Search for Another Location

Airport or City:

Astronomy

Jan. 09, 2013 Rise Set
Actual Time 8:09 AM CST 5:25 PM CST
Civil Twilight 7:37 AM CST 5:57 PM CST
Nautical Twilight 7:02 AM CST 6:32 PM CST
Astronomical Twilight 6:28 AM CST 7:06 PM CST
Moon 5:50 AM CST (1/9) 3:28 PM CST (1/9)
Length of Visible Light 10h 19m
Length of Day
9h 16m
Waning Crescent, 6% of the Moon is Illuminated
Jan 9
Waning Crescent
Jan 11
New
Jan 18
First Quarter
Jan 26
Full
Feb 3
Last Quarter

Hourly Weather History & Observations

Time (CST) Temp. Windchill Dew Point Humidity Pressure Visibility Wind Dir Wind Speed Gust Speed Precip Events Conditions
12:15 AM 29.7 °F 21.3 °F 23.9 °F 79% 30.17 in 10.0 mi WSW 9.2 mph - N/A   Clear
12:35 AM 30.2 °F 21.9 °F 24.3 °F 79% 30.16 in 10.0 mi West 9.2 mph - N/A   Clear
12:55 AM 30.2 °F 21.9 °F 24.3 °F 79% 30.16 in 10.0 mi West 9.2 mph - N/A   Clear
1:15 AM 30.6 °F 23.1 °F 24.3 °F 77% 30.17 in 10.0 mi West 8.1 mph - N/A   Clear
1:35 AM 30.6 °F 21.8 °F 23.9 °F 76% 30.17 in 10.0 mi West 10.4 mph - N/A   Clear
1:55 AM 30.0 °F 22.4 °F 23.4 °F 76% 30.18 in 10.0 mi West 8.1 mph - N/A   Clear
2:15 AM 29.7 °F 22.0 °F 23.0 °F 76% 30.18 in 10.0 mi West 8.1 mph - N/A   Clear
2:35 AM 28.0 °F 20.8 °F 22.6 °F 80% 30.18 in 10.0 mi WSW 6.9 mph - N/A   Clear
2:55 AM 27.0 °F 20.5 °F 21.2 °F 79% 30.18 in 10.0 mi West 5.8 mph - N/A   Clear
3:15 AM 27.5 °F 20.2 °F 22.1 °F 80% 30.20 in 10.0 mi West 6.9 mph - N/A   Clear
3:35 AM 27.3 °F 19.9 °F 21.4 °F 78% 30.18 in 10.0 mi West 6.9 mph - N/A   Clear
3:55 AM 26.4 °F 19.8 °F 21.2 °F 81% 30.19 in 10.0 mi WSW 5.8 mph - N/A   Clear
4:15 AM 25.0 °F 18.1 °F 19.9 °F 81% 30.18 in 10.0 mi WSW 5.8 mph - N/A   Clear
4:35 AM 25.0 °F 18.1 °F 20.1 °F 82% 30.18 in 10.0 mi WSW 5.8 mph - N/A   Clear
4:55 AM 25.5 °F 17.8 °F 19.8 °F 79% 30.18 in 10.0 mi WSW 6.9 mph - N/A   Clear
5:15 AM 25.3 °F 17.6 °F 19.9 °F 80% 30.18 in 10.0 mi SW 6.9 mph - N/A   Clear
5:35 AM 25.2 °F 17.3 °F 19.6 °F 79% 30.17 in 10.0 mi SW 6.9 mph - N/A   Clear
5:55 AM 25.5 °F 18.7 °F 19.2 °F 77% 30.17 in 10.0 mi SW 5.8 mph - N/A   Clear
6:15 AM 23.2 °F 17.2 °F 17.8 °F 80% 30.17 in 10.0 mi SSW 4.6 mph - N/A   Clear
6:35 AM 23.0 °F 15.8 °F 17.6 °F 80% 30.17 in 10.0 mi SSW 5.8 mph - N/A   Clear
6:55 AM 23.9 °F 16.8 °F 19.2 °F 82% 30.17 in 10.0 mi SSW 5.8 mph - N/A   Clear
7:15 AM 24.6 °F 15.1 °F 20.1 °F 83% 30.18 in 10.0 mi SSW 9.2 mph - N/A   Clear
7:35 AM 25.7 °F 17.1 °F 20.3 °F 80% 30.19 in 10.0 mi SSW 8.1 mph - N/A   Clear
7:55 AM 24.4 °F 17.5 °F 19.4 °F 81% 30.20 in 10.0 mi South 5.8 mph - N/A   Clear
8:15 AM 22.3 °F 13.0 °F 18.3 °F 85% 30.22 in 10.0 mi South 8.1 mph - N/A   Clear
8:35 AM 25.5 °F 16.2 °F 20.7 °F 82% 30.23 in 10.0 mi SSW 9.2 mph - N/A   Clear
8:55 AM 28.6 °F 19.9 °F 22.6 °F 78% 30.24 in 10.0 mi SSW 9.2 mph - N/A   Clear
9:15 AM 30.9 °F 21.7 °F 23.9 °F 75% 30.25 in 10.0 mi SSW 11.5 mph - N/A   Clear
9:35 AM 32.4 °F 21.7 °F 24.4 °F 73% 30.25 in 10.0 mi SSW 16.1 mph - N/A   Clear
9:55 AM 35.1 °F 25.5 °F 25.7 °F 69% 30.25 in 10.0 mi SSW 15.0 mph - N/A   Clear
10:15 AM 36.7 °F 27.2 °F 26.4 °F 66% 30.25 in 10.0 mi SSW 16.1 mph - N/A   Clear
10:35 AM 38.5 °F 30.3 °F 26.2 °F 61% 30.25 in 10.0 mi SSW 13.8 mph - N/A   Clear
10:55 AM 39.4 °F 30.7 °F 26.6 °F 60% 30.26 in 10.0 mi SSW 16.1 mph - N/A   Clear
11:15 AM 40.8 °F 30.7 °F 26.8 °F 57% 30.26 in 10.0 mi SSW 24.2 mph 27.6 mph N/A   Clear
11:35 AM 42.1 °F 33.1 °F 26.6 °F 54% 30.26 in 10.0 mi SSW 20.7 mph 27.6 mph N/A   Clear
11:55 AM 44.6 °F 35.3 °F 26.6 °F 49% 30.25 in 10.0 mi SSW 26.5 mph 33.4 mph N/A   Clear
12:15 PM 46.4 °F 38.3 °F 25.7 °F 44% 30.24 in 10.0 mi SW 23.0 mph 29.9 mph N/A   Clear
12:35 PM 48.4 °F - 25.7 °F 41% 30.22 in 10.0 mi SW 26.5 mph 34.5 mph N/A   Clear
12:55 PM 50.0 °F - 25.7 °F 39% 30.20 in 10.0 mi SW 27.6 mph 31.1 mph N/A   Clear
1:15 PM 51.1 °F - 25.5 °F 37% 30.19 in 10.0 mi SW 20.7 mph 27.6 mph N/A   Clear
1:35 PM 52.0 °F - 25.3 °F 36% 30.19 in 10.0 mi SW 20.7 mph 29.9 mph N/A   Clear
1:55 PM 53.1 °F - 25.7 °F 35% 30.19 in 10.0 mi SW 21.9 mph 28.8 mph N/A   Clear
2:15 PM 52.7 °F - 25.5 °F 35% 30.18 in 10.0 mi SW 20.7 mph 28.8 mph N/A   Clear
2:35 PM 53.2 °F - 25.3 °F 34% 30.18 in 10.0 mi SW 25.3 mph 31.1 mph N/A   Clear
2:55 PM 53.1 °F - 25.5 °F 34% 30.18 in 10.0 mi SW 23.0 mph 28.8 mph N/A   Clear
3:15 PM 53.2 °F - 25.0 °F 33% 30.17 in 10.0 mi SW 23.0 mph - N/A   Clear
3:35 PM 53.6 °F - 25.3 °F 34% 30.17 in 10.0 mi SW 17.3 mph - N/A   Clear
3:55 PM 53.2 °F - 24.8 °F 33% 30.17 in 10.0 mi SSW 13.8 mph - N/A   Clear
4:15 PM 52.9 °F - 25.0 °F 34% 30.16 in 10.0 mi SSW 11.5 mph - N/A   Clear
4:35 PM 51.8 °F - 24.8 °F 35% 30.16 in 10.0 mi SSW 10.4 mph - N/A   Clear
4:55 PM 49.6 °F - 25.7 °F 39% 30.16 in 10.0 mi South 10.4 mph - N/A   Clear
5:15 PM 43.9 °F 38.8 °F 25.7 °F 49% 30.16 in 10.0 mi South 9.2 mph - N/A   Clear
5:35 PM 41.4 °F 35.2 °F 26.6 °F 56% 30.15 in 10.0 mi South 10.4 mph - N/A   Clear
5:55 PM 40.6 °F 35.4 °F 26.4 °F 57% 30.15 in 10.0 mi South 8.1 mph - N/A   Clear
6:15 PM 39.4 °F 33.2 °F 26.6 °F 60% 30.14 in 10.0 mi South 9.2 mph - N/A   Clear
6:35 PM 37.9 °F 31.5 °F 26.6 °F 64% 30.14 in 10.0 mi South 9.2 mph - N/A   Clear
6:55 PM 39.6 °F 33.0 °F 27.7 °F 62% 30.14 in 10.0 mi South 10.4 mph - N/A   Clear
7:15 PM 40.1 °F 32.7 °F 27.5 °F 61% 30.13 in 10.0 mi South 12.7 mph - N/A   Clear
7:35 PM 39.0 °F 31.8 °F 27.1 °F 62% 30.12 in 10.0 mi South 11.5 mph - N/A   Clear
7:55 PM 37.9 °F 29.6 °F 27.3 °F 66% 30.12 in 10.0 mi South 13.8 mph - N/A   Clear
8:15 PM 37.4 °F 29.3 °F 28.4 °F 70% 30.12 in 10.0 mi South 12.7 mph - N/A   Clear
8:35 PM 37.0 °F 28.9 °F 27.7 °F 69% 30.12 in 10.0 mi South 12.7 mph - N/A   Clear
8:55 PM 37.9 °F 29.2 °F 28.0 °F 68% 30.12 in 10.0 mi South 15.0 mph - N/A   Clear
9:15 PM 38.5 °F 29.6 °F 27.5 °F 65% 30.12 in 10.0 mi South 16.1 mph - N/A   Clear
9:35 PM 37.9 °F 29.6 °F 27.1 °F 65% 30.11 in 10.0 mi South 13.8 mph - N/A   Clear
9:55 PM 37.4 °F 28.5 °F 26.6 °F 65% 30.11 in 10.0 mi South 15.0 mph - N/A   Clear
10:15 PM 38.5 °F 28.9 °F 27.5 °F 65% 30.10 in 10.0 mi South 18.4 mph - N/A   Clear
10:35 PM 38.3 °F 28.7 °F 27.1 °F 64% 30.11 in 10.0 mi South 18.4 mph - N/A   Clear
10:55 PM 37.8 °F 27.7 °F 27.5 °F 67% 30.10 in 10.0 mi South 19.6 mph - N/A   Clear
11:15 PM 38.1 °F 28.1 °F 27.9 °F 67% 30.10 in 10.0 mi South 19.6 mph 25.3 mph N/A   Clear
11:35 PM 38.7 °F 29.5 °F 27.5 °F 64% 30.10 in 10.0 mi South 17.3 mph - N/A   Clear
11:55 PM 39.2 °F 29.6 °F 27.3 °F 62% 30.10 in 10.0 mi South 19.6 mph - N/A   Clear